Skip Navigation
Skip Navigation

Today's Weather Data

Time Wind Dir Wind Spd
mph
Wind Gust
mph
Hum In
%
Humidity
%
Temp In
F
Temp
F
Raw Barom
in
Tot Rain
in
UV Solar
W/sqm
DailyRain
in
HourRain
in
24HrRain
in
RainRate
in/hr
7/28/2014 12:01:15a 211 0 1 34 30 84.8 81.9 30.00 0.00 0.0 0 0.00 0.00 0.00 0.000
7/28/2014 12:02:15a 211 0 1 34 30 84.8 81.8 30.00 0.00 0.0 0 0.00 0.00 0.00 0.000
7/28/2014 12:03:15a 211 0 0 34 29 84.8 81.8 30.00 0.00 0.0 0 0.00 0.00 0.00 0.000
7/28/2014 12:04:15a 211 0 0 34 29 84.8 81.8 29.99 0.00 0.0 0 0.00 0.00 0.00 0.000
7/28/2014 12:05:15a 211 0 0 34 30 84.6 81.8 30.00 0.00 0.0 0 0.00 0.00 0.00 0.000
7/28/2014 12:06:15a 211 1 1 34 30 84.6 81.8 30.00 0.00 0.0 0 0.00 0.00 0.00 0.000
7/28/2014 12:07:15a 211 0 2 34 29 84.6 81.7 30.00 0.00 0.0 0 0.00 0.00 0.00 0.000
7/28/2014 12:08:22a 211 0 2 34 29 84.6 81.7 30.00 0.00 0.0 0 0.00 0.00 0.00 0.000
7/28/2014 12:09:22a 211 0 2 34 29 84.6 81.7 30.00 0.00 0.0 0 0.00 0.00 0.00 0.000
7/28/2014 12:10:22a 211 0 2 34 29 84.6 81.7 30.00 0.00 0.0 0 0.00 0.00 0.00 0.000
7/28/2014 12:11:23a 211 1 2 34 29 84.6 81.6 30.00 0.00 0.0 0 0.00 0.00 0.00 0.000
7/28/2014 12:12:23a 211 0 2 34 29 84.6 81.6 30.00 0.00 0.0 0 0.00 0.00 0.00 0.000
7/28/2014 12:13:26a 211 0 2 34 30 84.6 81.6 30.00 0.00 0.0 0 0.00 0.00 0.00 0.000
7/28/2014 12:14:26a 211 0 2 34 29 84.6 81.6 30.00 0.00 0.0 0 0.00 0.00 0.00 0.000
7/28/2014 12:15:26a 211 0 2 34 29 84.6 81.6 30.00 0.00 0.0 0 0.00 0.00 0.00 0.000
7/28/2014 12:16:26a 211 0 2 34 29 84.6 81.6 30.00 0.00 0.0 0 0.00 0.00 0.00 0.000
7/28/2014 12:17:26a 211 0 2 34 29 84.6 81.6 30.00 0.00 0.0 0 0.00 0.00 0.00 0.000
7/28/2014 12:18:33a 211 0 0 34 29 84.4 81.6 30.00 0.00 0.0 0 0.00 0.00 0.00 0.000
7/28/2014 12:19:33a 211 0 0 34 29 84.4 81.6 30.00 0.00 0.0 0 0.00 0.00 0.00 0.000
7/28/2014 12:20:33a 211 0 0 34 29 84.4 81.7 30.00 0.00 0.0 0 0.00 0.00 0.00 0.000
7/28/2014 12:21:33a 211 0 0 34 29 84.4 81.7 30.00 0.00 0.0 0 0.00 0.00 0.00 0.000
7/28/2014 12:22:33a 211 0 0 34 29 84.4 81.6 30.00 0.00 0.0 0 0.00 0.00 0.00 0.000
7/28/2014 12:23:33a 211 0 1 34 28 84.4 81.6 30.00 0.00 0.0 0 0.00 0.00 0.00 0.000
7/28/2014 12:24:33a 211 0 1 34 28 84.4 81.6 30.00 0.00 0.0 0 0.00 0.00 0.00 0.000
7/28/2014 12:25:37a 211 0 1 34 29 84.4 81.6 30.00 0.00 0.0 0 0.00 0.00 0.00 0.000
7/28/2014 12:26:37a 211 0 1 34 29 84.4 81.5 30.00 0.00 0.0 0 0.00 0.00 0.00 0.000
7/28/2014 12:27:37a 211 0 1 34 29 84.4 81.5 30.00 0.00 0.0 0 0.00 0.00 0.00 0.000
7/28/2014 12:28:37a 211 0 1 34 30 84.4 81.4 30.00 0.00 0.0 0 0.00 0.00 0.00 0.000
7/28/2014 12:29:37a 211 0 1 34 29 84.4 81.4 30.00 0.00 0.0 0 0.00 0.00 0.00 0.000
7/28/2014 12:30:37a 211 0 1 33 29 84.4 81.4 30.00 0.00 0.0 0 0.00 0.00 0.00 0.000
7/28/2014 12:31:37a 211 0 1 33 29 84.4 81.4 30.00 0.00 0.0 0 0.00 0.00 0.00 0.000
7/28/2014 12:32:40a 211 0 1 33 29 84.4 81.4 30.00 0.00 0.0 0 0.00 0.00 0.00 0.000
7/28/2014 12:33:40a 211 0 0 33 30 84.4 81.3 29.99 0.00 0.0 0 0.00 0.00 0.00 0.000
7/28/2014 12:34:40a 211 0 1 33 31 84.4 81.3 29.99 0.00 0.0 0 0.00 0.00 0.00 0.000
7/28/2014 12:35:40a 211 0 1 33 31 84.4 81.2 29.99 0.00 0.0 0 0.00 0.00 0.00 0.000
7/28/2014 12:36:40a 211 0 1 33 31 84.4 81.2 30.00 0.00 0.0 0 0.00 0.00 0.00 0.000
7/28/2014 12:37:40a 211 0 1 33 31 84.2 81.2 29.99 0.00 0.0 0 0.00 0.00 0.00 0.000
7/28/2014 12:38:40a 211 0 1 33 31 84.2 81.1 29.99 0.00 0.0 0 0.00 0.00 0.00 0.000
7/28/2014 12:39:41a 211 0 1 33 31 84.2 81.0 29.99 0.00 0.0 0 0.00 0.00 0.00 0.000
7/28/2014 12:40:41a 211 0 1 33 31 84.2 81.0 30.00 0.00 0.0 0 0.00 0.00 0.00 0.000
7/28/2014 12:41:41a 211 0 1 33 31 84.2 81.0 30.00 0.00 0.0 0 0.00 0.00 0.00 0.000
7/28/2014 12:42:41a 211 0 1 33 31 84.2 80.9 30.00 0.00 0.0 0 0.00 0.00 0.00 0.000
7/28/2014 12:43:44a 211 0 1 33 31 84.2 81.0 30.00 0.00 0.0 0 0.00 0.00 0.00 0.000
7/28/2014 12:44:44a 211 0 1 33 31 84.2 81.0 30.00 0.00 0.0 0 0.00 0.00 0.00 0.000
7/28/2014 12:45:44a 211 0 1 33 31 84.2 81.0 29.99 0.00 0.0 0 0.00 0.00 0.00 0.000
7/28/2014 12:46:44a 211 1 1 33 31 84.2 81.0 30.00 0.00 0.0 0 0.00 0.00 0.00 0.000
7/28/2014 12:47:44a 211 0 1 33 31 84.2 81.0 29.99 0.00 0.0 0 0.00 0.00 0.00 0.000
7/28/2014 12:48:44a 211 1 1 33 32 84.2 80.9 29.99 0.00 0.0 0 0.00 0.00 0.00 0.000
7/28/2014 12:49:44a 211 0 1 33 32 84.2 80.8 30.00 0.00 0.0 0 0.00 0.00 0.00 0.000
7/28/2014 12:50:44a 211 0 1 33 32 84.2 80.7 29.99 0.00 0.0 0 0.00 0.00 0.00 0.000
7/28/2014 12:51:44a 211 0 1 33 32 84.2 80.6 29.99 0.00 0.0 0 0.00 0.00 0.00 0.000
7/28/2014 12:52:44a 211 0 1 33 32 84.0 80.5 29.99 0.00 0.0 0 0.00 0.00 0.00 0.000
7/28/2014 12:53:45a 211 0 1 33 32 84.0 80.4 29.99 0.00 0.0 0 0.00 0.00 0.00 0.000
7/28/2014 12:54:45a 211 0 1 33 32 84.0 80.4 30.00 0.00 0.0 0 0.00 0.00 0.00 0.000
7/28/2014 12:55:45a 211 0 1 33 32 84.0 80.4 30.00 0.00 0.0 0 0.00 0.00 0.00 0.000
7/28/2014 12:56:45a 211 0 1 33 32 84.0 80.4 30.00 0.00 0.0 0 0.00 0.00 0.00 0.000
7/28/2014 12:57:45a 211 0 1 33 32 84.0 80.3 30.00 0.00 0.0 0 0.00 0.00 0.00 0.000
7/28/2014 12:58:45a 211 0 1 33 31 84.0 80.3 30.00 0.00 0.0 0 0.00 0.00 0.00 0.000
7/28/2014 12:59:51a 211 0 1 33 31 84.0 80.3 30.00 0.00 0.0 0 0.00 0.00 0.00 0.000
7/28/2014 1:00:51a 211 0 1 33 31 84.0 80.3 30.00 0.00 0.0 0 0.00 0.00 0.00 0.000
7/28/2014 1:01:51a 211 0 1 33 31 84.0 80.4 30.00 0.00 0.0 0 0.00 0.00 0.00 0.000
7/28/2014 1:02:51a 211 1 1 33 32 84.0 80.3 30.00 0.00 0.0 0 0.00 0.00 0.00 0.000
7/28/2014 1:03:52a 211 0 1 33 31 84.0 80.3 30.00 0.00 0.0 0 0.00 0.00 0.00 0.000
7/28/2014 1:04:55a 211 0 1 33 31 84.0 80.3 30.00 0.00 0.0 0 0.00 0.00 0.00 0.000
7/28/2014 1:05:55a 211 1 1 33 31 84.0 80.3 30.00 0.00 0.0 0 0.00 0.00 0.00 0.000
7/28/2014 1:06:55a 211 0 1 33 31 84.0 80.3 30.00 0.00 0.0 0 0.00 0.00 0.00 0.000
7/28/2014 1:07:55a 211 1 1 33 31 84.0 80.3 30.00 0.00 0.0 0 0.00 0.00 0.00 0.000
7/28/2014 1:08:55a 211 1 2 33 31 83.8 80.3 30.00 0.00 0.0 0 0.00 0.00 0.00 0.000
7/28/2014 1:09:55a 211 0 2 33 31 83.8 80.3 30.00 0.00 0.0 0 0.00 0.00 0.00 0.000
7/28/2014 1:10:55a 194 1 3 33 31 83.8 80.4 30.00 0.00 0.0 0 0.00 0.00 0.00 0.000
7/28/2014 1:11:55a 194 1 3 33 32 83.8 80.4 30.00 0.00 0.0 0 0.00 0.00 0.00 0.000
7/28/2014 1:12:55a 194 2 3 33 32 83.8 80.4 30.01 0.00 0.0 0 0.00 0.00 0.00 0.000
7/28/2014 1:13:55a 169 2 3 33 33 83.8 80.4 30.01 0.00 0.0 0 0.00 0.00 0.00 0.000
7/28/2014 1:14:55a 169 0 3 33 33 83.8 80.3 30.00 0.00 0.0 0 0.00 0.00 0.00 0.000
7/28/2014 1:15:55a 173 1 4 33 33 83.8 80.3 30.00 0.00 0.0 0 0.00 0.00 0.00 0.000
7/28/2014 1:16:55a 172 1 4 33 34 83.8 80.2 30.01 0.00 0.0 0 0.00 0.00 0.00 0.000
7/28/2014 1:17:56a 172 1 4 33 34 83.8 80.1 30.00 0.00 0.0 0 0.00 0.00 0.00 0.000
7/28/2014 1:18:56a 172 0 2 33 35 83.8 80.1 30.00 0.00 0.0 0 0.00 0.00 0.00 0.000
7/28/2014 1:19:56a 173 1 2 33 35 83.8 80.0 30.00 0.00 0.0 0 0.00 0.00 0.00 0.000
7/28/2014 1:20:56a 173 0 2 33 35 83.8 79.9 30.01 0.00 0.0 0 0.00 0.00 0.00 0.000
7/28/2014 1:21:59a 173 1 2 33 35 83.8 79.9 30.01 0.00 0.0 0 0.00 0.00 0.00 0.000
7/28/2014 1:22:59a 168 2 3 33 35 83.8 79.8 30.01 0.00 0.0 0 0.00 0.00 0.00 0.000
7/28/2014 1:23:59a 168 1 3 33 35 83.8 79.7 30.01 0.00 0.0 0 0.00 0.00 0.00 0.000
7/28/2014 1:24:59a 168 2 3 32 35 83.8 79.7 30.01 0.00 0.0 0 0.00 0.00 0.00 0.000
7/28/2014 1:25:59a 168 1 3 33 36 83.8 79.6 30.01 0.00 0.0 0 0.00 0.00 0.00 0.000
7/28/2014 1:26:59a 168 2 3 32 36 83.8 79.6 30.01 0.00 0.0 0 0.00 0.00 0.00 0.000
7/28/2014 1:27:59a 168 0 3 32 36 83.8 79.5 30.01 0.00 0.0 0 0.00 0.00 0.00 0.000
7/28/2014 1:29:02a 168 0 3 32 36 83.6 79.5 30.01 0.00 0.0 0 0.00 0.00 0.00 0.000
7/28/2014 1:30:05a 168 0 3 32 36 83.6 79.4 30.01 0.00 0.0 0 0.00 0.00 0.00 0.000
7/28/2014 1:31:05a 168 0 3 33 36 83.6 79.4 30.01 0.00 0.0 0 0.00 0.00 0.00 0.000
7/28/2014 1:32:06a 168 1 3 33 36 83.6 79.4 30.01 0.00 0.0 0 0.00 0.00 0.00 0.000
7/28/2014 1:33:09a 168 1 1 33 36 83.6 79.4 30.01 0.00 0.0 0 0.00 0.00 0.00 0.000
7/28/2014 1:34:09a 168 0 1 33 36 83.6 79.4 30.01 0.00 0.0 0 0.00 0.00 0.00 0.000
7/28/2014 1:35:09a 168 0 1 33 37 83.6 79.3 30.01 0.00 0.0 0 0.00 0.00 0.00 0.000
7/28/2014 1:36:09a 168 0 1 33 37 83.6 79.2 30.01 0.00 0.0 0 0.00 0.00 0.00 0.000
7/28/2014 1:37:09a 168 0 1 33 36 83.6 79.2 30.01 0.00 0.0 0 0.00 0.00 0.00 0.000
7/28/2014 1:39:09a 168 1 2 33 37 83.6 79.0 30.01 0.00 0.0 0 0.00 0.00 0.00 0.000
7/28/2014 1:40:09a 168 1 2 33 37 83.6 79.0 30.01 0.00 0.0 0 0.00 0.00 0.00 0.000
7/28/2014 1:41:09a 168 1 2 33 37 83.6 79.0 30.01 0.00 0.0 0 0.00 0.00 0.00 0.000
7/28/2014 1:42:09a 168 0 2 33 37 83.6 79.0 30.01 0.00 0.0 0 0.00 0.00 0.00 0.000
7/28/2014 1:43:12a 168 0 2 33 38 83.6 79.0 30.01 0.00 0.0 0 0.00 0.00 0.00 0.000
7/28/2014 1:44:12a 168 0 2 33 38 83.6 79.0 30.01 0.00 0.0 0 0.00 0.00 0.00 0.000
7/28/2014 1:45:13a 168 1 2 33 38 83.6 78.9 30.01 0.00 0.0 0 0.00 0.00 0.00 0.000
7/28/2014 1:46:16a 168 0 2 33 38 83.6 78.8 30.01 0.00 0.0 0 0.00 0.00 0.00 0.000
7/28/2014 1:47:16a 168 0 2 33 39 83.6 78.8 30.01 0.00 0.0 0 0.00 0.00 0.00 0.000
7/28/2014 1:48:16a 168 0 0 33 39 83.4 78.7 30.01 0.00 0.0 0 0.00 0.00 0.00 0.000
7/28/2014 1:49:16a 168 0 1 33 39 83.4 78.6 30.01 0.00 0.0 0 0.00 0.00 0.00 0.000
7/28/2014 1:50:16a 168 1 2 33 39 83.4 78.6 30.01 0.00 0.0 0 0.00 0.00 0.00 0.000
7/28/2014 1:51:16a 168 0 2 33 38 83.4 78.6 30.01 0.00 0.0 0 0.00 0.00 0.00 0.000
7/28/2014 1:52:16a 168 0 2 32 39 83.4 78.5 30.01 0.00 0.0 0 0.00 0.00 0.00 0.000
7/28/2014 1:53:16a 168 0 2 32 38 83.4 78.5 30.01 0.00 0.0 0 0.00 0.00 0.00 0.000
7/28/2014 1:54:16a 168 2 2 32 38 83.4 78.5 30.01 0.00 0.0 0 0.00 0.00 0.00 0.000
7/28/2014 1:55:16a 196 1 4 32 38 83.4 78.5 30.01 0.00 0.0 0 0.00 0.00 0.00 0.000
7/28/2014 1:56:19a 196 1 4 32 38 83.4 78.6 30.01 0.00 0.0 0 0.00 0.00 0.00 0.000
7/28/2014 1:57:19a 196 1 4 32 38 83.4 78.6 30.01 0.00 0.0 0 0.00 0.00 0.00 0.000
7/28/2014 1:58:19a 196 1 4 32 37 83.4 78.6 30.02 0.00 0.0 0 0.00 0.00 0.00 0.000
7/28/2014 1:59:19a 196 1 4 32 37 83.4 78.6 30.02 0.00 0.0 0 0.00 0.00 0.00 0.000
7/28/2014 2:00:19a 196 0 4 33 37 83.4 78.6 30.02 0.00 0.0 0 0.00 0.00 0.00 0.000
7/28/2014 2:01:19a 195 2 4 33 37 83.4 78.6 30.02 0.00 0.0 0 0.00 0.00 0.00 0.000
7/28/2014 2:02:19a 196 2 4 33 37 83.4 78.6 30.02 0.00 0.0 0 0.00 0.00 0.00 0.000
7/28/2014 2:03:20a 195 0 0 32 37 83.4 78.6 30.02 0.00 0.0 0 0.00 0.00 0.00 0.000
7/28/2014 2:04:20a 196 0 0 33 37 83.4 78.5 30.02 0.00 0.0 0 0.00 0.00 0.00 0.000
7/28/2014 2:05:20a 195 0 1 33 37 83.4 78.5 30.02 0.00 0.0 0 0.00 0.00 0.00 0.000
7/28/2014 2:06:23a 196 0 1 33 37 83.4 78.5 30.02 0.00 0.0 0 0.00 0.00 0.00 0.000
7/28/2014 2:07:23a 196 0 1 33 37 83.2 78.4 30.02 0.00 0.0 0 0.00 0.00 0.00 0.000
7/28/2014 2:08:23a 200 4 4 33 37 83.2 78.3 30.02 0.00 0.0 0 0.00 0.00 0.00 0.000
7/28/2014 2:09:23a 200 2 4 33 37 83.2 78.2 30.02 0.00 0.0 0 0.00 0.00 0.00 0.000
7/28/2014 2:10:23a 199 4 4 33 37 83.2 78.1 30.02 0.00 0.0 0 0.00 0.00 0.00 0.000
7/28/2014 2:11:23a 199 1 4 33 37 83.2 78.1 30.02 0.00 0.0 0 0.00 0.00 0.00 0.000
7/28/2014 2:12:23a 200 2 4 33 37 83.2 78.1 30.02 0.00 0.0 0 0.00 0.00 0.00 0.000
7/28/2014 2:13:23a 199 3 4 33 37 83.2 78.0 30.02 0.00 0.0 0 0.00 0.00 0.00 0.000
7/28/2014 2:14:23a 200 2 4 33 37 83.2 77.9 30.02 0.00 0.0 0 0.00 0.00 0.00 0.000
7/28/2014 2:15:23a 200 2 4 33 37 83.2 77.9 30.02 0.00 0.0 0 0.00 0.00 0.00 0.000
7/28/2014 2:16:23a 200 1 4 33 37 83.2 77.9 30.02 0.00 0.0 0 0.00 0.00 0.00 0.000
7/28/2014 2:17:23a 199 0 4 33 37 83.2 77.9 30.02 0.00 0.0 0 0.00 0.00 0.00 0.000
7/28/2014 2:18:23a 199 0 0 33 37 83.2 77.8 30.02 0.00 0.0 0 0.00 0.00 0.00 0.000
7/28/2014 2:19:24a 200 0 1 33 37 83.2 77.8 30.02 0.00 0.0 0 0.00 0.00 0.00 0.000
7/28/2014 2:20:24a 200 0 1 32 37 83.2 77.8 30.02 0.00 0.0 0 0.00 0.00 0.00 0.000
7/28/2014 2:21:27a 200 0 1 32 38 83.2 77.7 30.01 0.00 0.0 0 0.00 0.00 0.00 0.000
7/28/2014 2:22:27a 200 0 1 32 38 83.2 77.7 30.01 0.00 0.0 0 0.00 0.00 0.00 0.000
7/28/2014 2:23:27a 200 0 1 32 38 83.2 77.7 30.01 0.00 0.0 0 0.00 0.00 0.00 0.000
7/28/2014 2:24:27a 199 0 1 32 38 83.2 77.6 30.01 0.00 0.0 0 0.00 0.00 0.00 0.000
7/28/2014 2:25:27a 200 0 1 32 38 83.2 77.6 30.01 0.00 0.0 0 0.00 0.00 0.00 0.000
7/28/2014 2:26:27a 200 0 1 32 38 83.2 77.6 30.01 0.00 0.0 0 0.00 0.00 0.00 0.000
7/28/2014 2:27:27a 199 2 3 32 38 83.2 77.6 30.01 0.00 0.0 0 0.00 0.00 0.00 0.000
7/28/2014 2:28:28a 200 2 3 32 38 83.2 77.5 30.01 0.00 0.0 0 0.00 0.00 0.00 0.000
7/28/2014 2:29:28a 200 3 3 32 38 83.2 77.5 30.01 0.00 0.0 0 0.00 0.00 0.00 0.000
7/28/2014 2:30:28a 200 2 3 32 38 83.2 77.5 30.01 0.00 0.0 0 0.00 0.00 0.00 0.000
7/28/2014 2:31:28a 200 0 3 32 38 83.0 77.5 30.01 0.00 0.0 0 0.00 0.00 0.00 0.000
7/28/2014 2:32:28a 200 1 3 32 39 83.0 77.5 30.01 0.00 0.0 0 0.00 0.00 0.00 0.000
7/28/2014 2:33:28a 199 1 2 33 39 83.0 77.4 30.02 0.00 0.0 0 0.00 0.00 0.00 0.000
7/28/2014 2:34:28a 199 1 2 33 39 83.0 77.4 30.02 0.00 0.0 0 0.00 0.00 0.00 0.000
7/28/2014 2:35:28a 200 1 2 33 39 83.0 77.4 30.01 0.00 0.0 0 0.00 0.00 0.00 0.000
7/28/2014 2:36:28a 200 2 2 33 39 83.0 77.3 30.01 0.00 0.0 0 0.00 0.00 0.00 0.000
7/28/2014 2:37:28a 200 1 2 33 39 83.0 77.3 30.01 0.00 0.0 0 0.00 0.00 0.00 0.000
7/28/2014 2:38:28a 200 0 2 33 39 83.0 77.3 30.01 0.00 0.0 0 0.00 0.00 0.00 0.000
7/28/2014 2:39:28a 200 1 2 33 39 83.0 77.3 30.01 0.00 0.0 0 0.00 0.00 0.00 0.000
7/28/2014 2:40:28a 200 2 2 33 39 83.0 77.2 30.01 0.00 0.0 0 0.00 0.00 0.00 0.000
7/28/2014 2:41:29a 200 1 2 33 39 83.0 77.2 30.01 0.00 0.0 0 0.00 0.00 0.00 0.000
7/28/2014 2:42:35a 200 0 2 33 39 83.0 77.2 30.01 0.00 0.0 0 0.00 0.00 0.00 0.000
7/28/2014 2:43:35a 200 0 2 33 39 83.0 77.2 30.01 0.00 0.0 0 0.00 0.00 0.00 0.000
7/28/2014 2:44:35a 199 0 2 33 40 83.0 77.2 30.01 0.00 0.0 0 0.00 0.00 0.00 0.000
7/28/2014 2:45:38a 200 0 2 33 40 83.0 77.1 30.01 0.00 0.0 0 0.00 0.00 0.00 0.000
7/28/2014 2:46:38a 199 0 2 33 40 83.0 77.1 30.01 0.00 0.0 0 0.00 0.00 0.00 0.000
7/28/2014 2:47:38a 199 0 2 33 40 83.0 77.1 30.01 0.00 0.0 0 0.00 0.00 0.00 0.000
7/28/2014 2:48:41a 200 0 0 33 40 83.0 77.0 30.01 0.00 0.0 0 0.00 0.00 0.00 0.000
7/28/2014 2:49:41a 199 0 0 33 40 83.0 77.0 30.01 0.00 0.0 0 0.00 0.00 0.00 0.000
7/28/2014 2:50:41a 199 0 0 33 40 83.0 77.0 30.01 0.00 0.0 0 0.00 0.00 0.00 0.000
7/28/2014 2:51:42a 200 0 0 32 41 83.0 77.0 30.01 0.00 0.0 0 0.00 0.00 0.00 0.000
7/28/2014 2:52:45a 200 0 0 32 41 83.0 76.9 30.01 0.00 0.0 0 0.00 0.00 0.00 0.000
7/28/2014 2:53:45a 200 0 0 32 40 83.0 76.9 30.01 0.00 0.0 0 0.00 0.00 0.00 0.000
7/28/2014 2:54:45a 200 0 0 32 41 83.0 76.9 30.01 0.00 0.0 0 0.00 0.00 0.00 0.000
7/28/2014 2:55:45a 200 0 0 32 41 83.0 76.9 30.01 0.00 0.0 0 0.00 0.00 0.00 0.000
7/28/2014 2:56:45a 200 1 1 32 40 83.0 76.9 30.01 0.00 0.0 0 0.00 0.00 0.00 0.000
7/28/2014 2:57:45a 199 3 3 32 41 82.9 76.9 30.01 0.00 0.0 0 0.00 0.00 0.00 0.000
7/28/2014 2:58:45a 199 2 3 32 41 82.9 76.9 30.02 0.00 0.0 0 0.00 0.00 0.00 0.000
7/28/2014 2:59:45a 199 1 3 32 40 82.9 76.9 30.02 0.00 0.0 0 0.00 0.00 0.00 0.000
7/28/2014 3:00:45a 200 1 3 32 40 82.9 76.9 30.02 0.00 0.0 0 0.00 0.00 0.00 0.000
7/28/2014 3:01:45a 200 2 3 32 40 82.9 76.9 30.02 0.00 0.0 0 0.00 0.00 0.00 0.000
7/28/2014 3:02:45a 200 0 3 33 40 82.9 76.9 30.02 0.00 0.0 0 0.00 0.00 0.00 0.000
7/28/2014 3:03:45a 200 3 4 33 40 82.9 76.9 30.02 0.00 0.0 0 0.00 0.00 0.00 0.000
7/28/2014 3:04:45a 200 3 4 33 40 82.9 76.8 30.02 0.00 0.0 0 0.00 0.00 0.00 0.000
7/28/2014 3:05:46a 200 2 4 33 40 82.9 76.8 30.02 0.00 0.0 0 0.00 0.00 0.00 0.000
7/28/2014 3:06:46a 199 3 4 33 40 82.9 76.8 30.02 0.00 0.0 0 0.00 0.00 0.00 0.000
7/28/2014 3:07:46a 200 2 4 33 40 82.9 76.8 30.02 0.00 0.0 0 0.00 0.00 0.00 0.000
7/28/2014 3:08:46a 200 1 4 33 40 82.9 76.8 30.03 0.00 0.0 0 0.00 0.00 0.00 0.000
7/28/2014 3:09:46a 200 0 4 33 40 82.9 76.8 30.02 0.00 0.0 0 0.00 0.00 0.00 0.000
7/28/2014 3:10:46a 200 0 4 33 40 82.9 76.7 30.03 0.00 0.0 0 0.00 0.00 0.00 0.000
7/28/2014 3:11:46a 200 0 4 33 40 82.9 76.7 30.03 0.00 0.0 0 0.00 0.00 0.00 0.000
7/28/2014 3:12:46a 200 0 4 33 40 82.9 76.7 30.03 0.00 0.0 0 0.00 0.00 0.00 0.000
7/28/2014 3:13:46a 199 0 4 33 40 82.9 76.7 30.03 0.00 0.0 0 0.00 0.00 0.00 0.000
7/28/2014 3:14:49a 200 0 4 33 40 82.9 76.7 30.03 0.00 0.0 0 0.00 0.00 0.00 0.000
7/28/2014 3:15:49a 200 0 4 33 40 82.9 76.7 30.03 0.00 0.0 0 0.00 0.00 0.00 0.000
7/28/2014 3:16:49a 200 0 4 33 40 82.9 76.7 30.03 0.00 0.0 0 0.00 0.00 0.00 0.000
7/28/2014 3:17:49a 199 1 4 33 40 82.9 76.7 30.03 0.00 0.0 0 0.00 0.00 0.00 0.000
7/28/2014 3:18:49a 200 0 0 33 40 82.9 76.7 30.03 0.00 0.0 0 0.00 0.00 0.00 0.000
7/28/2014 3:19:49a 200 0 1 33 40 82.9 76.7 30.03 0.00 0.0 0 0.00 0.00 0.00 0.000
7/28/2014 3:20:50a 200 0 1 33 40 82.9 76.7 30.03 0.00 0.0 0 0.00 0.00 0.00 0.000
7/28/2014 3:21:50a 200 0 1 33 40 82.9 76.7 30.03 0.00 0.0 0 0.00 0.00 0.00 0.000
7/28/2014 3:22:50a 199 0 1 33 40 82.9 76.7 30.03 0.00 0.0 0 0.00 0.00 0.00 0.000
7/28/2014 3:23:50a 199 0 1 32 40 82.9 76.7 30.03 0.00 0.0 0 0.00 0.00 0.00 0.000
7/28/2014 3:24:53a 200 1 1 32 40 82.9 76.7 30.03 0.00 0.0 0 0.00 0.00 0.00 0.000
7/28/2014 3:25:53a 200 0 1 32 40 82.9 76.7 30.03 0.00 0.0 0 0.00 0.00 0.00 0.000
7/28/2014 3:26:53a 200 0 1 32 40 82.9 76.7 30.03 0.00 0.0 0 0.00 0.00 0.00 0.000
7/28/2014 3:27:53a 200 0 1 33 41 82.7 76.7 30.03 0.00 0.0 0 0.00 0.00 0.00 0.000
7/28/2014 3:28:53a 200 0 1 33 41 82.7 76.7 30.03 0.00 0.0 0 0.00 0.00 0.00 0.000
7/28/2014 3:29:53a 200 0 1 33 41 82.7 76.7 30.03 0.00 0.0 0 0.00 0.00 0.00 0.000
7/28/2014 3:30:53a 200 0 2 33 41 82.7 76.6 30.03 0.00 0.0 0 0.00 0.00 0.00 0.000
7/28/2014 3:31:53a 200 0 2 33 41 82.7 76.6 30.03 0.00 0.0 0 0.00 0.00 0.00 0.000
7/28/2014 3:32:53a 199 1 2 33 41 82.7 76.5 30.03 0.00 0.0 0 0.00 0.00 0.00 0.000
7/28/2014 3:33:53a 199 0 1 33 41 82.7 76.5 30.03 0.00 0.0 0 0.00 0.00 0.00 0.000
7/28/2014 3:34:54a 199 0 1 33 41 82.7 76.5 30.03 0.00 0.0 0 0.00 0.00 0.00 0.000
7/28/2014 3:35:54a 200 0 1 33 41 82.7 76.5 30.03 0.00 0.0 0 0.00 0.00 0.00 0.000
7/28/2014 3:36:57a 200 0 1 33 41 82.7 76.4 30.03 0.00 0.0 0 0.00 0.00 0.00 0.000
7/28/2014 3:37:57a 200 0 1 33 41 82.7 76.4 30.03 0.00 0.0 0 0.00 0.00 0.00 0.000
7/28/2014 3:38:57a 200 0 1 33 41 82.7 76.4 30.03 0.00 0.0 0 0.00 0.00 0.00 0.000
7/28/2014 3:39:57a 200 0 1 33 41 82.7 76.4 30.03 0.00 0.0 0 0.00 0.00 0.00 0.000
7/28/2014 3:40:57a 199 0 2 33 41 82.7 76.4 30.03 0.00 0.0 0 0.00 0.00 0.00 0.000
7/28/2014 3:41:57a 199 0 2 33 41 82.7 76.3 30.03 0.00 0.0 0 0.00 0.00 0.00 0.000
7/28/2014 3:43:03a 200 0 2 33 41 82.7 76.3 30.03 0.00 0.0 0 0.00 0.00 0.00 0.000
7/28/2014 3:44:06a 200 1 2 33 41 82.7 76.3 30.03 0.00 0.0 0 0.00 0.00 0.00 0.000
7/28/2014 3:45:06a 200 2 2 33 41 82.7 76.3 30.03 0.00 0.0 0 0.00 0.00 0.00 0.000
7/28/2014 3:46:06a 200 1 3 33 41 82.7 76.2 30.03 0.00 0.0 0 0.00 0.00 0.00 0.000
7/28/2014 3:47:06a 199 0 3 33 41 82.7 76.2 30.03 0.00 0.0 0 0.00 0.00 0.00 0.000
7/28/2014 3:48:06a 199 1 1 33 42 82.7 76.2 30.03 0.00 0.0 0 0.00 0.00 0.00 0.000
7/28/2014 3:49:07a 200 0 2 33 42 82.7 76.1 30.03 0.00 0.0 0 0.00 0.00 0.00 0.000
7/28/2014 3:50:07a 199 0 2 33 42 82.7 76.1 30.03 0.00 0.0 0 0.00 0.00 0.00 0.000
7/28/2014 3:51:07a 200 0 2 33 42 82.7 76.1 30.03 0.00 0.0 0 0.00 0.00 0.00 0.000
7/28/2014 3:52:07a 199 0 2 33 42 82.7 76.1 30.03 0.00 0.0 0 0.00 0.00 0.00 0.000
7/28/2014 3:53:07a 200 0 2 33 42 82.7 76.0 30.03 0.00 0.0 0 0.00 0.00 0.00 0.000
7/28/2014 3:54:07a 199 0 2 33 42 82.7 76.0 30.03 0.00 0.0 0 0.00 0.00 0.00 0.000
7/28/2014 3:55:07a 199 0 2 33 42 82.7 76.0 30.03 0.00 0.0 0 0.00 0.00 0.00 0.000
7/28/2014 3:56:07a 199 1 2 33 42 82.5 76.0 30.03 0.00 0.0 0 0.00 0.00 0.00 0.000
7/28/2014 3:57:13a 200 0 2 33 42 82.5 76.0 30.03 0.00 0.0 0 0.00 0.00 0.00 0.000
7/28/2014 3:58:13a 199 1 2 33 42 82.5 76.0 30.03 0.00 0.0 0 0.00 0.00 0.00 0.000
7/28/2014 3:59:13a 200 0 2 33 42 82.5 75.9 30.03 0.00 0.0 0 0.00 0.00 0.00 0.000
7/28/2014 4:00:13a 199 0 2 33 42 82.5 75.9 30.03 0.00 0.0 0 0.00 0.00 0.00 0.000
7/28/2014 4:01:13a 199 0 2 33 42 82.5 75.9 30.03 0.00 0.0 0 0.00 0.00 0.00 0.000
7/28/2014 4:02:16a 199 0 2 33 42 82.5 75.9 30.03 0.00 0.0 0 0.00 0.00 0.00 0.000
7/28/2014 4:03:17a 200 0 1 33 42 82.5 75.8 30.04 0.00 0.0 0 0.00 0.00 0.00 0.000
7/28/2014 4:04:20a 199 0 1 33 42 82.5 75.8 30.03 0.00 0.0 0 0.00 0.00 0.00 0.000
7/28/2014 4:05:20a 199 1 2 33 43 82.5 75.8 30.03 0.00 0.0 0 0.00 0.00 0.00 0.000
7/28/2014 4:06:20a 199 1 2 33 43 82.5 75.8 30.03 0.00 0.0 0 0.00 0.00 0.00 0.000
7/28/2014 4:07:23a 199 2 2 33 43 82.5 75.8 30.03 0.00 0.0 0 0.00 0.00 0.00 0.000
7/28/2014 4:08:23a 200 1 3 33 43 82.5 75.7 30.03 0.00 0.0 0 0.00 0.00 0.00 0.000
7/28/2014 4:09:23a 200 0 3 33 43 82.5 75.7 30.03 0.00 0.0 0 0.00 0.00 0.00 0.000
7/28/2014 4:10:23a 199 1 3 33 43 82.5 75.7 30.03 0.00 0.0 0 0.00 0.00 0.00 0.000
7/28/2014 4:11:26a 200 0 3 33 43 82.5 75.7 30.03 0.00 0.0 0 0.00 0.00 0.00 0.000
7/28/2014 4:12:26a 200 2 3 33 43 82.5 75.7 30.03 0.00 0.0 0 0.00 0.00 0.00 0.000
7/28/2014 4:13:26a 200 0 3 33 43 82.5 75.7 30.03 0.00 0.0 0 0.00 0.00 0.00 0.000
7/28/2014 4:14:26a 200 0 3 33 43 82.5 75.6 30.03 0.00 0.0 0 0.00 0.00 0.00 0.000
7/28/2014 4:15:26a 199 0 3 33 43 82.5 75.6 30.04 0.00 0.0 0 0.00 0.00 0.00 0.000
7/28/2014 4:16:26a 199 0 3 33 43 82.5 75.6 30.03 0.00 0.0 0 0.00 0.00 0.00 0.000
7/28/2014 4:17:27a 200 0 3 33 43 82.5 75.6 30.04 0.00 0.0 0 0.00 0.00 0.00 0.000
7/28/2014 4:18:30a 199 0 0 33 43 82.5 75.6 30.04 0.00 0.0 0 0.00 0.00 0.00 0.000
7/28/2014 4:19:30a 200 0 0 33 44 82.5 75.7 30.04 0.00 0.0 0 0.00 0.00 0.00 0.000
7/28/2014 4:20:30a 200 0 1 33 43 82.5 75.7 30.03 0.00 0.0 0 0.00 0.00 0.00 0.000
7/28/2014 4:21:30a 200 0 1 33 43 82.5 75.7 30.04 0.00 0.0 0 0.00 0.00 0.00 0.000
7/28/2014 4:22:30a 199 0 1 33 43 82.5 75.7 30.03 0.00 0.0 0 0.00 0.00 0.00 0.000
7/28/2014 4:23:30a 199 0 1 33 43 82.3 75.7 30.03 0.00 0.0 0 0.00 0.00 0.00 0.000
7/28/2014 4:24:32a 200 0 1 33 43 82.3 75.7 30.03 0.00 0.0 0 0.00 0.00 0.00 0.000
7/28/2014 4:25:33a 199 0 1 33 43 82.3 75.7 30.03 0.00 0.0 0 0.00 0.00 0.00 0.000
7/28/2014 4:26:33a 200 0 1 33 43 82.3 75.7 30.03 0.00 0.0 0 0.00 0.00 0.00 0.000
7/28/2014 4:27:33a 200 0 1 33 43 82.3 75.6 30.03 0.00 0.0 0 0.00 0.00 0.00 0.000
7/28/2014 4:29:33a 200 0 1 33 44 82.3 75.6 30.03 0.00 0.0 0 0.00 0.00 0.00 0.000
7/28/2014 4:30:36a 200 0 1 33 44 82.3 75.6 30.04 0.00 0.0 0 0.00 0.00 0.00 0.000
7/28/2014 4:31:36a 200 0 1 33 44 82.3 75.6 30.04 0.00 0.0 0 0.00 0.00 0.00 0.000
7/28/2014 4:32:36a 200 0 1 33 45 82.3 75.6 30.04 0.00 0.0 0 0.00 0.00 0.00 0.000
7/28/2014 4:33:36a 200 0 1 33 44 82.3 75.5 30.04 0.00 0.0 0 0.00 0.00 0.00 0.000
7/28/2014 4:34:36a 200 0 1 33 44 82.3 75.5 30.04 0.00 0.0 0 0.00 0.00 0.00 0.000
7/28/2014 4:35:36a 199 0 1 33 45 82.3 75.4 30.04 0.00 0.0 0 0.00 0.00 0.00 0.000
7/28/2014 4:36:36a 199 0 1 33 45 82.3 75.4 30.04 0.00 0.0 0 0.00 0.00 0.00 0.000
7/28/2014 4:37:37a 200 0 1 33 45 82.3 75.4 30.04 0.00 0.0 0 0.00 0.00 0.00 0.000
7/28/2014 4:38:37a 200 0 1 33 45 82.3 75.3 30.04 0.00 0.0 0 0.00 0.00 0.00 0.000
7/28/2014 4:39:37a 200 0 1 33 45 82.3 75.3 30.04 0.00 0.0 0 0.00 0.00 0.00 0.000
7/28/2014 4:40:37a 200 0 1 33 45 82.3 75.3 30.04 0.00 0.0 0 0.00 0.00 0.00 0.000
7/28/2014 4:41:37a 200 0 1 33 44 82.3 75.2 30.04 0.00 0.0 0 0.00 0.00 0.00 0.000
7/28/2014 4:42:37a 199 0 1 33 44 82.3 75.3 30.04 0.00 0.0 0 0.00 0.00 0.00 0.000
7/28/2014 4:43:37a 199 0 1 33 44 82.3 75.3 30.04 0.00 0.0 0 0.00 0.00 0.00 0.000
7/28/2014 4:44:37a 200 0 1 33 44 82.3 75.3 30.04 0.00 0.0 0 0.00 0.00 0.00 0.000
7/28/2014 4:45:37a 200 0 1 33 44 82.3 75.3 30.04 0.00 0.0 0 0.00 0.00 0.00 0.000
7/28/2014 4:46:37a 200 0 1 33 45 82.3 75.3 30.04 0.00 0.0 0 0.00 0.00 0.00 0.000
7/28/2014 4:47:43a 199 0 1 33 45 82.3 75.3 30.04 0.00 0.0 0 0.00 0.00 0.00 0.000
7/28/2014 4:48:43a 200 0 0 33 45 82.3 75.2 30.04 0.00 0.0 0 0.00 0.00 0.00 0.000
7/28/2014 4:49:43a 200 0 0 33 45 82.3 75.2 30.04 0.00 0.0 0 0.00 0.00 0.00 0.000
7/28/2014 4:50:46a 199 0 0 33 45 82.3 75.2 30.04 0.00 0.0 0 0.00 0.00 0.00 0.000
7/28/2014 4:51:46a 200 0 0 33 45 82.3 75.2 30.04 0.00 0.0 0 0.00 0.00 0.00 0.000
7/28/2014 4:52:50a 200 0 0 33 45 82.3 75.2 30.04 0.00 0.0 0 0.00 0.00 0.00 0.000
7/28/2014 4:53:50a 200 0 0 33 45 82.3 75.2 30.04 0.00 0.0 0 0.00 0.00 0.00 0.000
7/28/2014 4:54:53a 200 0 1 33 45 82.1 75.2 30.04 0.00 0.0 0 0.00 0.00 0.00 0.000
7/28/2014 4:55:53a 199 1 1 33 45 82.1 75.2 30.04 0.00 0.0 0 0.00 0.00 0.00 0.000
7/28/2014 4:56:53a 200 0 1 33 45 82.1 75.1 30.04 0.00 0.0 0 0.00 0.00 0.00 0.000
7/28/2014 4:57:53a 200 0 1 33 45 82.1 75.1 30.04 0.00 0.0 0 0.00 0.00 0.00 0.000
7/28/2014 4:58:53a 200 0 1 33 45 82.1 75.1 30.04 0.00 0.0 0 0.00 0.00 0.00 0.000
7/28/2014 4:59:53a 200 0 1 33 45 82.1 75.1 30.04 0.00 0.0 0 0.00 0.00 0.00 0.000
7/28/2014 5:00:56a 200 0 1 33 45 82.1 75.1 30.04 0.00 0.0 0 0.00 0.00 0.00 0.000
7/28/2014 5:01:56a 200 0 1 33 45 82.1 75.2 30.04 0.00 0.0 0 0.00 0.00 0.00 0.000
7/28/2014 5:02:56a 199 1 2 33 45 82.1 75.2 30.04 0.00 0.0 0 0.00 0.00 0.00 0.000
7/28/2014 5:03:56a 200 1 1 33 45 82.1 75.1 30.04 0.00 0.0 0 0.00 0.00 0.00 0.000
7/28/2014 5:04:57a 199 0 2 33 45 82.1 75.1 30.04 0.00 0.0 0 0.00 0.00 0.00 0.000
7/28/2014 5:05:57a 199 1 2 33 45 82.1 75.1 30.04 0.00 0.0 0 0.00 0.00 0.00 0.000
7/28/2014 5:06:57a 199 0 2 33 45 82.1 75.1 30.04 0.00 0.0 0 0.00 0.00 0.00 0.000
7/28/2014 5:07:57a 199 0 2 33 45 82.1 75.1 30.04 0.00 0.0 0 0.00 0.00 0.00 0.000
7/28/2014 5:08:57a 199 0 2 33 45 82.1 75.1 30.04 0.00 0.0 0 0.00 0.00 0.00 0.000
7/28/2014 5:09:57a 199 0 2 33 45 82.1 75.1 30.04 0.00 0.0 0 0.00 0.00 0.00 0.000
7/28/2014 5:10:57a 199 0 2 33 45 82.1 75.1 30.04 0.00 0.0 0 0.00 0.00 0.00 0.000
7/28/2014 5:11:57a 199 0 2 33 45 82.1 75.1 30.04 0.00 0.0 0 0.00 0.00 0.00 0.000
7/28/2014 5:12:57a 199 0 2 33 45 82.1 75.0 30.04 0.00 0.0 0 0.00 0.00 0.00 0.000
7/28/2014 5:13:57a 199 0 2 33 45 82.1 75.0 30.04 0.00 0.0 0 0.00 0.00 0.00 0.000
7/28/2014 5:14:57a 200 0 2 33 45 82.1 75.0 30.04 0.00 0.0 0 0.00 0.00 0.00 0.000
7/28/2014 5:15:57a 199 0 2 33 45 82.1 75.0 30.04 0.00 0.0 0 0.00 0.00 0.00 0.000
7/28/2014 5:16:57a 199 0 2 33 45 82.1 75.0 30.04 0.00 0.0 0 0.00 0.00 0.00 0.000
7/28/2014 5:17:57a 199 0 2 33 45 82.1 74.9 30.04 0.00 0.0 0 0.00 0.00 0.00 0.000
7/28/2014 5:18:58a 199 0 0 33 45 82.1 74.9 30.04 0.00 0.0 0 0.00 0.00 0.00 0.000
7/28/2014 5:19:58a 199 0 0 33 45 82.1 74.9 30.04 0.00 0.0 0 0.00 0.00 0.00 0.000

© All rights reserved. Unauthorized duplication or distribution is prohibited

Never base important decisions on this or any weather information obtained from the Internet

California State University, San Bernardino
5500 University Parkway, San Bernardino, CA. 92407
Phone: (909) 537-7558, Email: Weather Master
Last Updated: